SCP
0 0 0 0 0 0 0 0 0 0 0 0 0 0 0 0 0 0 0 0 0 0
0 0 0 0 0 0 0 0 0 0 0 0 0 0 0 0 0 0 0 0 0 0
0 0 0 0 0 0 0 0 0 0 0 0 0 0 0 0 0 0 0 0 0 0
0 0 0 0 0 0 0 0 0 0 0 0 0 0 0 0 0 0 0 0 0 0
0 0 0 0 0 0 0 0 0 0 0 0 0 0 0 0 0 0 0 0 0 0
0 0 0 0 0 0 0 0 0 0 0 0 0 0 0 0 0 0 0 0 0 0
0 0 0 0 0 0 0 0 0 0 0 0 0 0 0 0 0 0 0 0 0 0
0 0 0 0 0 0 0 0 0 0 0 0 0 0 0 0 0 0 0 0 0 0
0 0 0 0 0 0 0 0 0 0 0 0 0 0 0 0 0 0 0 0 0 0
0 0 0 0 0 0 0 0 0 0 0 0 0 0 0 0 0 0 0 0 0 0
0 0 0 0 0 0 0 0 0 0 0 0 0 0 0 0 0 0 0 0 0 0
0 0 0 0 0 0 0 0 0 0 0 0 0 0 0 0 0 0 0 0 0 0
0 0 0 0 0 0 0 0 0 0 0 0 0 0 0 0 0 0 0 0 0 0
0 0 0 0 0 0 0 0 0 0 0 0 0 0 0 0 0 0 0 0 0 0
Wind_Speed_500mb
87 88 88 90 90 90 86 85 81 75 73 72 68 64 59 53 48 44 42 41 41 43
85 86 90 92 93 92 88 84 77 73 71 72 70 67 60 54 50 46 44 43 44 46
77 84 93 97 96 93 90 86 77 72 73 73 72 68 62 57 53 49 45 45 48 50
78 83 94 96 97 95 88 84 76 73 74 75 74 70 65 59 55 51 47 49 50 52
88 86 91 95 93 92 89 85 78 74 74 75 76 73 68 62 56 51 49 49 53 54
89 88 87 87 87 86 85 85 80 76 76 77 77 74 68 63 56 52 51 53 55 54
91 90 85 86 85 83 82 82 80 76 76 76 76 73 69 63 57 52 51 53 53 51
91 86 86 85 83 80 77 77 74 74 75 76 77 74 68 61 54 50 50 49 53 50
87 85 84 81 78 77 75 75 74 75 76 79 79 73 69 61 53 50 45 55 51 49
77 80 78 75 75 74 76 74 77 78 79 80 75 72 65 58 51 43 54 54 50 49
69 71 71 71 71 72 74 78 79 79 80 79 75 71 62 55 44 53 56 49 46 47
61 66 68 70 70 73 76 80 83 81 82 81 76 68 61 50 48 58 49 44 41 42
61 63 63 66 71 74 76 79 82 83 83 78 72 65 55 47 58 50 45 40 37 33
64 66 64 64 69 74 81 84 85 84 87 85 76 64 56 55 57 47 40 37 30 29
Wind_Direction_500mb
235 237 239 241 242 243 244 245 245 243 243 242 241 240 242 247 252 257 263 269 275 281
237 239 241 243 243 244 246 246 245 244 244 242 239 239 240 245 249 254 260 268 274 280
243 245 246 246 247 246 246 246 243 241 241 239 239 238 239 241 247 253 259 266 273 279
241 245 248 250 250 249 248 248 243 239 237 236 239 239 239 242 247 252 257 265 273 278
243 245 249 251 252 251 248 245 241 237 234 235 237 237 239 242 246 252 258 266 273 279
249 249 250 252 252 250 247 242 238 234 235 235 235 236 238 242 246 251 258 265 273 277
251 251 252 251 250 247 245 238 235 233 234 233 234 235 237 240 244 250 259 269 275 281
254 252 250 249 248 246 242 237 234 231 230 230 230 232 235 239 244 252 261 271 278 285
253 250 247 245 244 242 236 231 227 226 229 229 229 230 234 238 245 255 265 272 277 285
248 246 245 242 239 235 230 226 224 225 227 226 227 230 233 238 244 256 267 271 280 288
243 243 242 238 234 229 226 223 222 223 225 225 224 228 232 237 246 255 261 269 278 287
244 241 238 234 230 226 222 220 220 222 222 221 222 225 228 236 247 253 259 267 278 287
246 243 239 235 231 226 223 223 220 218 219 220 220 221 225 234 244 253 259 265 277 289
248 244 238 232 228 224 219 218 219 219 217 213 212 213 223 236 247 249 253 266 277 287
Wind_Speed_850mb
87 88 88 90 90 90 86 85 81 75 73 72 68 64 59 53 48 44 42 41 41 43
85 86 90 92 93 92 88 84 77 73 71 72 70 67 60 54 50 46 44 43 44 46
77 84 93 97 96 93 90 86 77 72 73 73 72 68 62 57 53 49 45 45 48 50
78 83 94 96 97 95 88 84 76 73 74 75 74 70 65 59 55 51 47 49 50 52
88 86 91 95 93 92 89 85 78 74 74 75 76 73 68 62 56 51 49 49 53 54
89 88 87 87 87 86 85 85 80 76 76 77 77 74 68 63 56 52 51 53 55 54
91 90 85 86 85 83 82 82 80 76 76 76 76 73 69 63 57 52 51 53 53 51
91 86 86 85 83 80 77 77 74 74 75 76 77 74 68 61 54 50 50 49 53 50
87 85 84 81 78 77 75 75 74 75 76 79 79 73 69 61 53 50 45 55 51 49
77 80 78 75 75 74 76 74 77 78 79 80 75 72 65 58 51 43 54 54 50 49
69 71 71 71 71 72 74 78 79 79 80 79 75 71 62 55 44 53 56 49 46 47
61 66 68 70 70 73 76 80 83 81 82 81 76 68 61 50 48 58 49 44 41 42
61 63 63 66 71 74 76 79 82 83 83 78 72 65 55 47 58 50 45 40 37 33
64 66 64 64 69 74 81 84 85 84 87 85 76 64 56 55 57 47 40 37 30 29
Wind_Direction_850mb
235 237 239 241 242 243 244 245 245 243 243 242 241 240 242 247 252 257 263 269 275 281
237 239 241 243 243 244 246 246 245 244 244 242 239 239 240 245 249 254 260 268 274 280
243 245 246 246 247 246 246 246 243 241 241 239 239 238 239 241 247 253 259 266 273 279
241 245 248 250 250 249 248 248 243 239 237 236 239 239 239 242 247 252 257 265 273 278
243 245 249 251 252 251 248 245 241 237 234 235 237 237 239 242 246 252 258 266 273 279
249 249 250 252 252 250 247 242 238 234 235 235 235 236 238 242 246 251 258 265 273 277
251 251 252 251 250 247 245 238 235 233 234 233 234 235 237 240 244 250 259 269 275 281
254 252 250 249 248 246 242 237 234 231 230 230 230 232 235 239 244 252 261 271 278 285
253 250 247 245 244 242 236 231 227 226 229 229 229 230 234 238 245 255 265 272 277 285
248 246 245 242 239 235 230 226 224 225 227 226 227 230 233 238 244 256 267 271 280 288
243 243 242 238 234 229 226 223 222 223 225 225 224 228 232 237 246 255 261 269 278 287
244 241 238 234 230 226 222 220 220 222 222 221 222 225 228 236 247 253 259 267 278 287
246 243 239 235 231 226 223 223 220 218 219 220 220 221 225 234 244 253 259 265 277 289
248 244 238 232 228 224 219 218 219 219 217 213 212 213 223 236 247 249 253 266 277 287